Date,TemperatureHighF,TemperatureAvgF,TemperatureLowF,DewpointHighF,DewpointAvgF,DewpointLowF,HumidityHigh,HumidityAvg,HumidityLow,PressureMaxIn,PressureMinIn,WindSpeedMaxMPH,WindSpeedAvgMPH,GustSpeedMaxMPH,PrecipitationSumIn
2013-11-1,64.8,55.5,48.5,57.0,48.5,43.5,97,79,50,29.81,29.45,8,3,25,0.01
2013-11-2,55.8,47.2,37.3,45.2,41.0,36.1,100,80,59,30.16,29.80,7,1,16,0.00
2013-11-3,56.1,40.9,29.8,41.8,34.5,29.3,100,81,44,30.35,30.15,2,0,8,0.00
2013-11-4,59.2,48.4,34.8,45.6,40.8,33.5,97,77,56,30.37,30.27,5,0,13,0.00
2013-11-5,64.0,53.8,45.9,48.2,44.7,-99.9,98,75,54,30.38,30.16,5,-9,10,0.01
2013-11-6,60.1,55.7,42.3,57.8,49.8,41.0,98,82,60,30.16,29.98,11,3,18,0.44
2013-11-7,51.0,42.4,33.3,41.0,31.8,-99.9,97,72,38,30.35,30.14,8,2,13,0.00
2013-11-8,54.6,39.5,26.6,34.7,30.3,25.9,98,73,37,30.42,30.24,4,0,7,0.00
2013-11-9,62.8,51.0,34.3,45.2,37.2,28.6,80,60,46,30.24,30.06,12,4,25,0.00
2013-11-10,54.4,45.4,30.0,45.2,34.1,28.2,93,67,37,30.38,30.16,7,2,16,0.00
2013-11-11,60.3,43.1,27.5,46.0,34.0,26.5,98,75,34,30.33,30.13,11,2,24,0.03
2013-11-12,38.3,32.1,24.3,35.5,24.6,20.6,97,75,52,30.70,30.32,9,3,19,0.03
2013-11-13,41.6,28.7,17.7,24.2,20.0,16.1,95,73,37,30.72,30.44,8,1,13,0.00
2013-11-14,55.5,42.5,27.5,25.6,22.2,19.8,78,47,28,30.43,30.15,11,3,18,0.00
2013-11-15,53.1,46.5,33.7,45.1,32.0,22.2,92,59,38,30.16,30.07,5,1,11,0.00
2013-11-16,62.5,55.1,47.3,60.5,52.7,45.1,99,92,76,30.07,29.81,7,2,18,0.04
2013-11-17,64.8,63.3,61.7,61.0,60.6,60.2,96,91,86,29.80,29.71,17,9,35,0.42
2013-11-20,53.8,47.0,41.8,36.5,34.9,32.6,79,64,45,30.22,30.18,6,1,32,0.00
2013-11-21,58.5,51.5,45.3,52.3,42.7,-99.9,99,76,62,30.28,30.17,5,-11,10,0.08
2013-11-22,53.8,47.9,38.1,53.6,45.8,33.1,100,92,79,30.44,30.16,10,3,15,0.06
2013-11-23,38.1,30.9,21.9,33.4,22.2,9.7,95,71,51,30.68,30.43,11,4,21,0.00
2013-11-24,30.0,21.7,15.3,15.3,12.0,9.7,89,67,44,30.79,30.58,4,1,11,0.00
2013-11-25,37.7,29.7,17.8,30.3,19.9,14.6,91,69,40,30.57,30.21,8,2,13,0.00
2013-11-26,37.0,34.6,32.6,32.1,28.9,25.5,93,80,65,30.25,29.99,11,2,18,0.00
2013-11-27,33.2,24.4,16.4,25.5,15.3,8.7,81,68,47,30.38,30.04,10,5,19,0.00
2013-11-28,39.1,25.0,13.4,19.6,15.5,10.8,91,70,41,30.50,30.32,10,2,19,0.00
2013-11-29,42.1,26.9,14.5,24.8,19.4,12.4,92,76,48,30.67,30.50,4,0,6,0.00
2013-11-30,54.7,36.9,21.8,32.0,25.6,19.6,94,68,33,30.52,30.18,11,2,20,0.00